Location: Ehingen
(48.2869°N, 9.7112°E)
Time: 04:23:42
(UTC+02:00)

ISS - Visible Passes

Search period start: 21 July 2018 00:00
Search period end: 31 July 2018 00:00
Orbit: 402 x 408 km, 51.6° (Epoch: 21 July)

Date Brightness Start Highest point End Pass type
(mag) Time Alt. Az. Time Alt. Az. Time Alt. Az.
21 Jul -2.6 01:23:26 10° WNW 01:26:37 44° N 01:29:48 10° ENE visible
21 Jul -3.7 03:00:04 10° WNW 03:03:22 76° NNE 03:06:41 10° ESE visible
21 Jul -2.7 04:36:52 10° W 04:39:38 25° SW 04:42:22 10° SSE visible
21 Jul -4.0 22:54:28 10° WSW 22:57:44 73° SSE 23:01:01 10° ENE visible
22 Jul -2.8 00:31:10 10° W 00:34:22 46° N 00:37:35 10° ENE visible
22 Jul -3.2 02:07:56 10° WNW 02:11:11 58° NNE 02:14:26 10° E visible
22 Jul -3.4 03:44:30 10° WNW 03:47:37 40° SSW 03:50:44 10° SE visible
22 Jul -3.5 22:02:30 10° SW 22:05:38 46° SSE 22:08:48 10° ENE visible
22 Jul -3.1 23:38:54 10° W 23:42:08 54° NNW 23:45:22 10° ENE visible
23 Jul -2.9 01:15:44 10° WNW 01:18:56 48° N 01:20:49 21° ENE visible
23 Jul -1.8 02:52:16 10° WNW 02:53:18 19° WNW 02:53:18 19° WNW visible
23 Jul -3.5 22:46:37 10° WSW 22:49:54 69° NNW 22:53:12 10° ENE visible
24 Jul -2.7 00:23:30 10° WNW 00:26:41 44° N 00:29:05 16° ENE visible
24 Jul -2.1 02:00:05 10° WNW 02:01:40 26° WNW 02:01:40 26° WNW visible
24 Jul -3.9 21:54:26 10° WSW 21:57:42 84° SSE 22:01:00 10° ENE visible
24 Jul -2.7 23:31:12 10° W 23:34:24 45° N 23:37:34 10° ENE visible
25 Jul -3.1 01:07:54 10° WNW 01:10:39 52° NNW 01:10:39 52° NNW visible
25 Jul -2.9 22:38:53 10° W 22:42:06 50° N 22:45:19 10° ENE visible
26 Jul -3.0 00:15:41 10° WNW 00:18:55 50° N 00:19:51 36° ENE visible
26 Jul -1.0 01:52:13 10° WNW 01:52:27 12° WNW 01:52:27 12° WNW visible
26 Jul -3.3 21:46:34 10° W 21:49:49 63° NNW 21:53:06 10° ENE visible
26 Jul -2.8 23:23:26 10° WNW 23:26:37 45° N 23:29:08 15° ENE visible
27 Jul -2.2 01:00:00 10° WNW 01:01:44 29° WNW 01:01:44 29° WNW visible
27 Jul -2.7 22:31:07 10° WNW 22:34:17 44° N 22:37:27 10° ENE visible
28 Jul -3.7 00:07:46 10° WNW 00:11:03 70° NNE 00:11:05 70° NNE visible
28 Jul -2.8 21:38:45 10° W 21:41:57 48° N 21:45:09 10° ENE visible
28 Jul -3.2 23:15:31 10° WNW 23:18:46 54° NNE 23:20:27 25° E visible
29 Jul -1.5 00:52:05 10° WNW 00:53:04 18° W 00:53:04 18° W visible
29 Jul -2.9 22:23:14 10° WNW 22:26:26 46° N 22:29:37 10° E visible
29 Jul -3.4 23:59:46 10° WNW 00:02:28 54° W 00:02:28 54° W visible
30 Jul -3.8 23:07:31 10° WNW 23:10:48 78° NNE 23:11:53 39° E visible
